IBE22IA LEMD-LEAS

Flight info

Callsign IBE22IA
Flight time 0h 48m
Altitude 30000
Route ZMR DCT VETAN DCT OMESI/N0395F240 M30 XONDA
Aircraft A320/M-SDE3FGHIRWY/LB1

Departure

Time 2026-05-08 15:22
Airport Adolfo Suárez Madrid–Barajas Airport (LEMD)

Arrival

Time 2026-05-08 16:10
Airport Asturias Airport (LEAS)
Time Latitude Longitude Altitude Speed Heading
2026-05-08 15:07 40.48840 -3.58976 1981 ft 0 kts 269°
2026-05-08 15:14 40.48840 -3.58964 1983 ft 2 kts 269°
2026-05-08 15:14 40.48840 -3.58942 1980 ft 2 kts 269°
2026-05-08 15:14 40.48844 -3.58921 1980 ft 2 kts 228°
2026-05-08 15:15 40.48853 -3.58902 1982 ft 2 kts 208°
2026-05-08 15:15 40.48860 -3.58898 1981 ft 0 kts 184°
2026-05-08 15:16 40.48858 -3.58898 1981 ft 2 kts 184°
2026-05-08 15:17 40.48828 -3.58901 1981 ft 5 kts 183°
2026-05-08 15:17 40.48778 -3.58892 1981 ft 12 kts 149°
2026-05-08 15:17 40.48809 -3.58823 1980 ft 12 kts
2026-05-08 15:17 40.48895 -3.58821 1980 ft 12 kts
2026-05-08 15:18 40.48978 -3.58824 1982 ft 15 kts 358°
2026-05-08 15:18 40.49105 -3.58828 1980 ft 20 kts 358°
2026-05-08 15:18 40.49215 -3.58819 1980 ft 11 kts 24°
2026-05-08 15:18 40.49242 -3.58747 1982 ft 8 kts 91°
2026-05-08 15:19 40.49243 -3.58649 1980 ft 15 kts 87°
2026-05-08 15:19 40.49242 -3.58507 1980 ft 16 kts 90°
2026-05-08 15:19 40.49243 -3.58315 1980 ft 25 kts 90°
2026-05-08 15:19 40.49242 -3.58087 1980 ft 25 kts 90°
2026-05-08 15:20 40.49245 -3.57856 1980 ft 26 kts 89°
2026-05-08 15:20 40.49252 -3.57614 1980 ft 25 kts 68°
2026-05-08 15:20 40.49337 -3.57463 1982 ft 14 kts 22°
2026-05-08 15:20 40.49356 -3.57463 1980 ft 0 kts 356°
2026-05-08 15:21 40.49443 -3.57465 1980 ft 45 kts
2026-05-08 15:22 40.50001 -3.57467 1980 ft 112 kts 360°
2026-05-08 15:22 40.50970 -3.57474 1981 ft 164 kts 359°
2026-05-08 15:22 40.52156 -3.57485 2472 ft 169 kts 359°
2026-05-08 15:22 40.53336 -3.57499 3146 ft 170 kts 358°
2026-05-08 15:23 40.54565 -3.57515 3575 ft 187 kts 357°
2026-05-08 15:23 40.55859 -3.57986 3892 ft 205 kts 320°
2026-05-08 15:23 40.56765 -3.59494 4222 ft 221 kts 297°
2026-05-08 15:23 40.57726 -3.61130 4927 ft 231 kts 308°
2026-05-08 15:24 40.58879 -3.62630 5721 ft 235 kts 315°
2026-05-08 15:24 40.60147 -3.63998 6551 ft 237 kts 317°
2026-05-08 15:24 40.61459 -3.65335 7313 ft 240 kts 318°
2026-05-08 15:24 40.62812 -3.66638 8097 ft 245 kts 326°
2026-05-08 15:25 40.64426 -3.67466 8831 ft 255 kts 345°
2026-05-08 15:25 40.66282 -3.67600 9225 ft 282 kts
2026-05-08 15:25 40.68316 -3.67286 9625 ft 304 kts
2026-05-08 15:25 40.70448 -3.66963 10250 ft 314 kts
2026-05-08 15:26 40.72700 -3.66632 10530 ft 337 kts
2026-05-08 15:26 40.75111 -3.66565 10811 ft 353 kts 348°
2026-05-08 15:26 40.77439 -3.67565 11401 ft 353 kts 327°
2026-05-08 15:26 40.79367 -3.69533 12129 ft 349 kts 308°
2026-05-08 15:27 40.80711 -3.72175 12884 ft 346 kts 295°
2026-05-08 15:27 40.81880 -3.74962 13668 ft 348 kts 295°
2026-05-08 15:27 40.83052 -3.77784 14346 ft 351 kts 295°
2026-05-08 15:27 40.84227 -3.80620 15040 ft 353 kts 294°
2026-05-08 15:28 40.85413 -3.83479 15719 ft 356 kts 294°
2026-05-08 15:28 40.86606 -3.86353 16350 ft 359 kts 294°
2026-05-08 15:28 40.87800 -3.89213 17026 ft 361 kts 294°
2026-05-08 15:28 40.89019 -3.92127 17688 ft 363 kts 294°
2026-05-08 15:29 40.90242 -3.95055 18296 ft 365 kts 293°
2026-05-08 15:29 40.91470 -3.98004 18850 ft 367 kts 293°
2026-05-08 15:29 40.92702 -4.00973 19413 ft 370 kts 293°
2026-05-08 15:29 40.93940 -4.03967 19961 ft 372 kts 292°
2026-05-08 15:30 40.95182 -4.06976 20486 ft 374 kts 292°
2026-05-08 15:30 40.96435 -4.10008 21015 ft 376 kts 292°
2026-05-08 15:30 40.97695 -4.13053 21533 ft 379 kts 292°
2026-05-08 15:30 40.98965 -4.16125 22045 ft 381 kts 292°
2026-05-08 15:31 41.00240 -4.19219 22553 ft 383 kts 292°
2026-05-08 15:31 41.01522 -4.22336 23041 ft 385 kts 291°
2026-05-08 15:31 41.02767 -4.25480 23512 ft 386 kts 290°
2026-05-08 15:31 41.03971 -4.28667 23924 ft 388 kts 289°
2026-05-08 15:32 41.05151 -4.31883 24343 ft 389 kts 289°
2026-05-08 15:32 41.06372 -4.35106 24716 ft 395 kts 295°
2026-05-08 15:32 41.08090 -4.38021 25079 ft 406 kts 304°
2026-05-08 15:32 41.09963 -4.40834 25454 ft 408 kts 304°
2026-05-08 15:33 41.11860 -4.43648 25829 ft 410 kts 304°
2026-05-08 15:33 41.13770 -4.46465 26209 ft 412 kts 304°
2026-05-08 15:33 41.15694 -4.49304 26579 ft 414 kts 304°
2026-05-08 15:33 41.17619 -4.52151 26949 ft 415 kts 304°
2026-05-08 15:34 41.19548 -4.55015 27310 ft 417 kts 304°
2026-05-08 15:34 41.21481 -4.57896 27691 ft 419 kts 304°
2026-05-08 15:34 41.23421 -4.60800 28010 ft 422 kts 304°
2026-05-08 15:34 41.25371 -4.63721 28349 ft 424 kts 304°
2026-05-08 15:35 41.27330 -4.66655 28705 ft 425 kts 304°
2026-05-08 15:35 41.29298 -4.69606 29045 ft 427 kts 304°
2026-05-08 15:35 41.31271 -4.72566 29358 ft 428 kts 304°
2026-05-08 15:35 41.33250 -4.75538 29670 ft 430 kts 304°
2026-05-08 15:36 41.35238 -4.78523 29869 ft 431 kts 304°
2026-05-08 15:36 41.37212 -4.81481 29904 ft 429 kts 304°
2026-05-08 15:36 41.41210 -4.87514 29894 ft 444 kts 304°
2026-05-08 15:37 41.45354 -4.93775 29903 ft 449 kts 304°
2026-05-08 15:37 41.49472 -4.99983 29909 ft 451 kts 304°
2026-05-08 15:38 41.53625 -5.06274 29907 ft 451 kts 304°
2026-05-08 15:38 41.57769 -5.12563 29907 ft 451 kts 304°
2026-05-08 15:39 41.61912 -5.18860 29899 ft 451 kts 304°
2026-05-08 15:39 41.63950 -5.21959 29902 ft 435 kts 304°
2026-05-08 15:39 41.65916 -5.24939 29925 ft 421 kts 304°
2026-05-08 15:40 41.69735 -5.30786 29903 ft 416 kts 303°
2026-05-08 15:40 41.73530 -5.36634 29890 ft 417 kts 304°
2026-05-08 15:41 41.77346 -5.42504 29893 ft 418 kts 304°
2026-05-08 15:41 41.81178 -5.48379 29892 ft 418 kts 304°
2026-05-08 15:42 41.84997 -5.54261 29888 ft 418 kts 304°
2026-05-08 15:42 41.88806 -5.60150 29892 ft 418 kts 304°
2026-05-08 15:43 41.90715 -5.63101 29629 ft 418 kts 304°
2026-05-08 15:43 41.92630 -5.66027 29348 ft 417 kts 307°
2026-05-08 15:43 41.97355 -5.70754 28757 ft 437 kts 328°
2026-05-08 15:44 42.00234 -5.72155 28283 ft 440 kts 341°
2026-05-08 15:44 42.03223 -5.72802 28159 ft 429 kts 348°
2026-05-08 15:44 42.06192 -5.73304 27953 ft 434 kts 347°
2026-05-08 15:44 42.09198 -5.73850 27734 ft 438 kts 347°
2026-05-08 15:45 42.12216 -5.74412 27461 ft 437 kts 347°
2026-05-08 15:45 42.15229 -5.74973 27196 ft 436 kts 347°
2026-05-08 15:45 42.18226 -5.75523 26933 ft 434 kts 347°
2026-05-08 15:45 42.21216 -5.76064 26674 ft 432 kts 348°
2026-05-08 15:46 42.24186 -5.76595 26415 ft 430 kts 348°
2026-05-08 15:46 42.27112 -5.77119 26180 ft 428 kts 348°
2026-05-08 15:46 42.30098 -5.77654 25929 ft 427 kts 348°
2026-05-08 15:46 42.32996 -5.78175 25624 ft 422 kts 348°
2026-05-08 15:47 42.35899 -5.78694 25130 ft 418 kts 348°
2026-05-08 15:47 42.38764 -5.79210 24657 ft 414 kts 348°
2026-05-08 15:47 42.41604 -5.79724 24187 ft 410 kts 349°
2026-05-08 15:47 42.44419 -5.80237 23739 ft 406 kts 349°
2026-05-08 15:48 42.49972 -5.81250 22806 ft 398 kts 349°
2026-05-08 15:48 42.52703 -5.81743 22378 ft 393 kts 350°
2026-05-08 15:48 42.55398 -5.82225 21947 ft 389 kts 350°
2026-05-08 15:49 42.58080 -5.82704 21516 ft 385 kts 350°
2026-05-08 15:49 42.60696 -5.83174 21088 ft 382 kts 350°
2026-05-08 15:49 42.63323 -5.83649 20651 ft 380 kts 350°
2026-05-08 15:49 42.65932 -5.84122 20214 ft 377 kts 350°
2026-05-08 15:50 42.68541 -5.84600 19766 ft 376 kts 350°
2026-05-08 15:50 42.71132 -5.85078 19312 ft 375 kts 350°
2026-05-08 15:50 42.73711 -5.85555 18854 ft 374 kts 350°
2026-05-08 15:50 42.76293 -5.86028 18397 ft 374 kts 350°
2026-05-08 15:51 42.78863 -5.86496 17905 ft 373 kts 351°
2026-05-08 15:51 42.81434 -5.86965 17441 ft 371 kts 351°
2026-05-08 15:51 42.83987 -5.87431 16992 ft 369 kts 351°
2026-05-08 15:51 42.86527 -5.87897 16544 ft 367 kts 351°
2026-05-08 15:52 42.89058 -5.88349 16081 ft 366 kts 351°
2026-05-08 15:52 42.91574 -5.88776 15753 ft 362 kts 352°
2026-05-08 15:52 42.94067 -5.89186 15358 ft 361 kts 352°
2026-05-08 15:52 42.96568 -5.89598 14897 ft 361 kts 352°
2026-05-08 15:53 42.99066 -5.90013 14490 ft 361 kts 352°
2026-05-08 15:53 43.01526 -5.90423 14149 ft 356 kts 352°
2026-05-08 15:53 43.04020 -5.90653 13613 ft 361 kts
2026-05-08 15:53 43.06472 -5.90203 13468 ft 351 kts 14°
2026-05-08 15:54 43.08743 -5.89141 13340 ft 340 kts 26°
2026-05-08 15:54 43.10790 -5.87625 13192 ft 330 kts 31°
2026-05-08 15:54 43.12764 -5.86086 12963 ft 324 kts 30°
2026-05-08 15:54 43.14712 -5.84564 12633 ft 322 kts 31°
2026-05-08 15:55 43.16650 -5.83049 12335 ft 320 kts 31°
2026-05-08 15:55 43.20497 -5.80042 11668 ft 317 kts 31°
2026-05-08 15:55 43.22403 -5.78544 11362 ft 314 kts 31°
2026-05-08 15:56 43.24299 -5.77051 11010 ft 313 kts 31°
2026-05-08 15:56 43.26221 -5.75651 10697 ft 312 kts 22°
2026-05-08 15:56 43.28258 -5.74670 10380 ft 310 kts 18°
2026-05-08 15:56 43.30295 -5.73739 10074 ft 306 kts 18°
2026-05-08 15:57 43.32304 -5.72825 9744 ft 303 kts 18°
2026-05-08 15:57 43.33627 -5.72222 9524 ft 302 kts 18°
2026-05-08 15:57 43.35618 -5.71313 9178 ft 300 kts 18°
2026-05-08 15:57 43.38237 -5.70118 8612 ft 300 kts 18°
2026-05-08 15:58 43.40215 -5.69213 8224 ft 299 kts 18°
2026-05-08 15:58 43.41547 -5.68601 7984 ft 298 kts 19°
2026-05-08 15:58 43.43504 -5.67700 7608 ft 296 kts 19°
2026-05-08 15:58 43.45458 -5.66802 7248 ft 295 kts 19°
2026-05-08 15:59 43.47377 -5.65917 6910 ft 291 kts 20°
2026-05-08 15:59 43.49110 -5.64550 6857 ft 287 kts 44°
2026-05-08 15:59 43.50289 -5.62460 6864 ft 267 kts 67°
2026-05-08 15:59 43.50779 -5.60098 6869 ft 251 kts 89°
2026-05-08 16:00 43.50636 -5.57746 6870 ft 244 kts 110°
2026-05-08 16:00 43.49937 -5.55642 6874 ft 239 kts 129°
2026-05-08 16:00 43.48800 -5.54008 6872 ft 233 kts 147°
2026-05-08 16:00 43.47395 -5.53007 6873 ft 229 kts 165°
2026-05-08 16:01 43.45835 -5.52674 6873 ft 227 kts 182°
2026-05-08 16:01 43.44277 -5.52998 6871 ft 227 kts 194°
2026-05-08 16:01 43.42758 -5.53606 6869 ft 227 kts 198°
2026-05-08 16:01 43.41258 -5.54291 6870 ft 228 kts 198°
2026-05-08 16:02 43.39760 -5.54995 6869 ft 228 kts 198°
2026-05-08 16:02 43.38282 -5.55685 6870 ft 222 kts 198°
2026-05-08 16:02 43.36877 -5.56527 6873 ft 221 kts 213°
2026-05-08 16:02 43.35767 -5.57989 6872 ft 224 kts 231°
2026-05-08 16:03 43.35028 -5.59882 6874 ft 228 kts 248°
2026-05-08 16:03 43.34738 -5.62038 6872 ft 232 kts 267°
2026-05-08 16:03 43.35104 -5.64206 6867 ft 239 kts 295°
2026-05-08 16:03 43.36218 -5.65917 6870 ft 246 kts 326°
2026-05-08 16:04 43.37846 -5.66631 6865 ft 251 kts 358°
2026-05-08 16:04 43.39592 -5.66512 6868 ft 253 kts
2026-05-08 16:04 43.41339 -5.66362 6602 ft 250 kts
2026-05-08 16:04 43.43077 -5.66222 6165 ft 249 kts
2026-05-08 16:05 43.44800 -5.66333 5816 ft 247 kts 346°
2026-05-08 16:05 43.46382 -5.67191 5606 ft 242 kts 326°
2026-05-08 16:05 43.47655 -5.68670 5377 ft 238 kts 307°
2026-05-08 16:05 43.48501 -5.70592 5090 ft 233 kts 288°
2026-05-08 16:06 43.49010 -5.72675 4807 ft 231 kts 286°
2026-05-08 16:06 43.49520 -5.74797 4493 ft 230 kts 286°
2026-05-08 16:06 43.50020 -5.76882 4181 ft 229 kts 287°
2026-05-08 16:06 43.50514 -5.78939 3892 ft 230 kts 287°
2026-05-08 16:07 43.51015 -5.81034 3585 ft 231 kts 287°
2026-05-08 16:07 43.51520 -5.83145 3284 ft 232 kts 287°
2026-05-08 16:07 43.52021 -5.85239 2968 ft 226 kts 288°
2026-05-08 16:07 43.52501 -5.87248 2677 ft 215 kts 288°
2026-05-08 16:08 43.52960 -5.89171 2400 ft 207 kts 289°
2026-05-08 16:08 43.53401 -5.91025 2139 ft 198 kts 289°
2026-05-08 16:08 43.53818 -5.92775 1871 ft 186 kts 289°
2026-05-08 16:08 43.54207 -5.94408 1631 ft 173 kts 290°
2026-05-08 16:09 43.54566 -5.95922 1422 ft 157 kts 289°
2026-05-08 16:09 43.54897 -5.97309 1170 ft 148 kts 289°
2026-05-08 16:09 43.55217 -5.98625 1010 ft 143 kts 289°
2026-05-08 16:09 43.55524 -5.99922 776 ft 142 kts 289°
2026-05-08 16:10 43.55831 -6.01202 634 ft 142 kts 288°
2026-05-08 16:10 43.55934 -6.01643 534 ft 142 kts 287°
2026-05-08 16:10 43.56492 -6.04150 418 ft 15 kts 257°
2026-05-08 16:11 43.56484 -6.04244 416 ft 16 kts 259°
2026-05-08 16:11 43.56468 -6.04334 415 ft 6 kts 240°
2026-05-08 16:11 43.56415 -6.04378 419 ft 13 kts 178°
2026-05-08 16:11 43.56377 -6.04248 417 ft 20 kts 102°
2026-05-08 16:12 43.56328 -6.04032 419 ft 28 kts 106°
2026-05-08 16:12 43.56261 -6.03760 413 ft 31 kts 109°
2026-05-08 16:12 43.56194 -6.03483 415 ft 30 kts 110°
2026-05-08 16:12 43.56137 -6.03245 421 ft 13 kts 128°
2026-05-08 16:13 43.56059 -6.03224 421 ft 1 kts 191°
2026-05-08 16:13 43.56032 -6.03237 415 ft 12 kts 197°
2026-05-08 16:13 43.56005 -6.03248 421 ft 0 kts 196°